Content
SEND FEEDBACK

Daily
Averages
Monthly
Summary
French Polynesia

PAPEETE, FRENCH POLYNESIA


Home > Oceania > French Polynesia
Elevation: 7 feet     Latitude: 17 33S     Longitude: 149 36W

WEATHER
 
SELECT A DAY
Number of Records: 208,679;   Date Range: 6/30/96 - 8/10/14
 
SHARE

PRINT THIS DATA

[ ← Previous Day ]
WEATHER ALMANAC - JUNE 28, 2013
[ Next Day → ]
[ °C ]   °F
We're sorry. There is no daily almanac available for Papeete, French Polynesia on June 28, 2013.
WEATHER BY HOUR - JUNE 28, 2013
[ °C ]   °F
Local TimeTemperatureDewpointHumidityBarometerVisibilityWind DirectionWind SpeedGust SpeedPrecipitationEventsConditions
12:30 AM75.2 °F69.8 °F83 %30.01 in6.2 miVariable3.5 mphPartly Cloudy
1:00 AM75.2 °F68.0 °F78 %30.01 in6.2 miVariable2.3 mphPartly Cloudy
1:30 AM75.2 °F68.0 °F78 %30.01 in6.2 miVariable3.5 mphPartly Cloudy
2:00 AM74.0 °F68.0 °F78 %30.01 in12.0 miEast (80°)3.5 mphPartly Cloudy
2:00 AM73.4 °F68.0 °F83 %30.01 in6.2 miEast (80°)3.5 mphPartly Cloudy
2:30 AM73.4 °F68.0 °F83 %29.98 in6.2 miCalmPartly Cloudy
3:00 AM73.4 °F68.0 °F83 %29.98 in6.2 miENE (70°)4.6 mphPartly Cloudy
3:30 AM73.4 °F69.8 °F88 %29.98 in6.2 miESE (110°)3.5 mphMostly Cloudy
4:00 AM73.4 °F68.0 °F83 %29.98 in6.2 miVariable2.3 mphPartly Cloudy
4:30 AM73.4 °F68.0 °F83 %29.98 in6.2 miCalm
5:00 AM72.0 °F68.0 °F83 %29.99 in34.0 miEast (100°)3.5 mphClear
5:00 AM73.4 °F68.0 °F83 %29.98 in6.2 miVariable3.5 mph
5:30 AM73.4 °F68.0 °F83 %29.98 in6.2 miEast (100°)4.6 mph
6:00 AM71.6 °F68.0 °F88 %30.01 in6.2 miVariable3.5 mphPartly Cloudy
6:30 AM71.6 °F68.0 °F88 %30.01 in6.2 miVariable1.2 mphPartly Cloudy
7:00 AM71.6 °F68.0 °F88 %30.01 in6.2 miVariable2.3 mphPartly Cloudy
7:30 AM75.2 °F68.0 °F78 %30.04 in6.2 miVariable2.3 mphPartly Cloudy
8:00 AM78.0 °F69.0 °F67 %30.05 in19.0 miNNE (30°)1.2 mphPartly Cloudy
8:00 AM78.8 °F69.8 °F74 %30.04 in6.2 miCalmPartly Cloudy
8:30 AM80.6 °F69.8 °F70 %30.04 in6.2 miVariable1.2 mphPartly Cloudy
9:00 AM80.6 °F71.6 °F74 %30.04 in6.2 miWSW (240°)3.5 mphPartly Cloudy
9:30 AM82.4 °F71.6 °F70 %30.04 in6.2 miWSW (240°)3.5 mphPartly Cloudy
10:00 AM82.4 °F71.6 °F70 %30.04 in6.2 miSW (230°)6.9 mphPartly Cloudy
10:30 AM82.4 °F71.6 °F70 %30.04 in6.2 miSW (230°)6.9 mphPartly Cloudy
11:00 AM83.0 °F71.0 °F59 %30.04 in19.0 miSW (230°)5.8 mphScattered Clouds
11:00 AM82.4 °F71.6 °F70 %30.04 in6.2 miSW (230°)5.8 mphPartly Cloudy
11:30 AM84.2 °F71.6 °F66 %30.01 in6.2 miSW (230°)6.9 mphPartly Cloudy
12:00 PM84.2 °F71.6 °F66 %30.01 in6.2 miWSW (250°)5.8 mphPartly Cloudy
12:30 PM82.4 °F69.8 °F66 %29.98 in6.2 miSW (230°)8.1 mphScattered Clouds
1:00 PM82.4 °F69.8 °F66 %29.98 in6.2 miSW (230°)9.2 mphScattered Clouds
1:30 PM82.4 °F69.8 °F66 %29.98 in6.2 miSW (230°)9.2 mphScattered Clouds
2:00 PM83.0 °F71.0 °F59 %29.97 in19.0 miSW (220°)9.2 mphPartly Cloudy
2:00 PM82.4 °F71.6 °F70 %29.95 in6.2 miSW (220°)9.2 mphScattered Clouds
2:30 PM84.2 °F69.8 °F62 %29.95 in6.2 miSW (230°)6.9 mphScattered Clouds
3:00 PM82.4 °F69.8 °F66 %29.95 in6.2 miSW (230°)9.2 mphScattered Clouds
3:30 PM84.2 °F69.8 °F62 %29.95 in6.2 miWSW (240°)5.8 mphMostly Cloudy
4:00 PM82.4 °F69.8 °F66 %29.95 in6.2 miNorth (350°)4.6 mphRainLight Rain
4:30 PM82.4 °F69.8 °F66 %29.95 in6.2 miSW (230°)4.6 mphMostly Cloudy
5:00 PM81.0 °F68.0 °F57 %29.97 in16.0 miSouth (170°)6.7 mphPartly Cloudy
5:00 PM80.6 °F68.0 °F65 %29.95 in6.2 miSouth (170°)3.5 mphMostly Cloudy
5:30 PM80.6 °F68.0 °F65 %29.95 in6.2 miNE (40°)3.5 mphScattered Clouds
6:00 PM80.6 °F68.0 °F65 %29.98 in6.2 miSSE (150°)4.6 mphPartly Cloudy
6:30 PM78.8 °F68.0 °F69 %29.98 in6.2 miCalmPartly Cloudy
7:00 PM78.8 °F68.0 °F69 %29.98 in6.2 miCalmPartly Cloudy
7:30 PM77.0 °F68.0 °F74 %29.98 in6.2 miVariable2.3 mphPartly Cloudy
8:00 PM77.0 °F68.0 °F66 %30.01 in12.0 miSE (130°)2.3 mphPartly Cloudy
8:00 PM77.0 °F68.0 °F74 %30.01 in6.2 miVariable2.3 mphPartly Cloudy
8:30 PM77.0 °F68.0 °F74 %30.01 in6.2 miESE (110°)1.2 mphPartly Cloudy
9:00 PM77.0 °F68.0 °F74 %30.01 in6.2 miVariable3.5 mphPartly Cloudy
9:30 PM75.2 °F68.0 °F78 %30.01 in6.2 miVariable3.5 mphPartly Cloudy
10:00 PM75.2 °F68.0 °F78 %30.01 in6.2 miCalmPartly Cloudy
10:30 PM75.2 °F68.0 °F78 %30.01 in6.2 miVariable2.3 mphPartly Cloudy
11:00 PM75.0 °F68.0 °F73 %30.01 in12.0 miEast (80°)4.5 mphScattered Clouds
11:00 PM75.2 °F68.0 °F78 %30.01 in6.2 miVariable2.3 mphPartly Cloudy
11:30 PM75.2 °F68.0 °F78 %29.98 in6.2 miSouth (170°)2.3 mphPartly Cloudy
Hourly data recorded from NTAA, located miles away from Papeete, French Polynesia







STORIES FROM OUR PARTNERS